Find Starlink 31229

NORAD ID: 58986 Int'l Des: 2024-031 Owner: SPXS Country: US Constellation: starlink operational
LEOCIRCULAR

Current View

Loading 3D Globe...

About Starlink 31229

Description loading...

Upcoming Passes

Passes for default location (London). Set your location on the main map for personalized predictions.

Altitude History

Loading altitude history...

Two-Line Element Set

1 58986U 24031X 26149.51956551 -.00003117 00000-0 -93256-4 0 9998
2 58986 53.1610 281.5941 0001043 37.6045 322.5029 15.30173792128885
Epoch: May 29, 2026 • Age: 12 hours

Current Status

Altitude 491.1 km
Velocity 7.62 km/s
Sub-Earth Point -46.01°S, 29.84°W
Launch Date Feb 15, 2024
Age 2.2 years
Type internet

Technical Details

Classification Payload
Mass 730.00 kg
Dry Mass 700.00 kg
Total Mass 730.00 kg
Length 0.30 m
Diameter 4.10 m
Span 29.00 m
Shape Box + pan
Manufacturer SPXS
Bus Type Starlink V2M
Phase Status In Orbit
Owner/State SPXS/US

Most Searched